PDT,Max TemperatureF,Mean TemperatureF,Min TemperatureF,Max Dew PointF,MeanDew PointF,Min DewpointF,Max Humidity, Mean Humidity, Min Humidity, Max Sea Level PressureIn, Mean Sea Level PressureIn, Min Sea Level PressureIn, Max VisibilityMiles, Mean VisibilityMiles, Min VisibilityMiles, Max Wind SpeedMPH, Mean Wind SpeedMPH, Max Gust SpeedMPH,PrecipitationIn, CloudCover, Events, WindDirDegrees
2013-9-1,105,94,82,71,65,53,69,43,18,29.83,29.76,29.69,10,10,10,10,5,,0.00,0,,232
2013-9-2,107,94,81,68,63,57,57,39,21,29.81,29.74,29.69,10,10,9,24,5,36,0.00,0,Thunderstorm,217
2013-9-3,107,94,82,68,64,60,62,40,22,29.83,29.76,29.70,10,10,10,7,4,,0.00,0,,239
2013-9-4,95,86,80,75,70,64,79,60,39,29.91,29.82,29.75,10,10,3,21,5,25,0.13,2,Rain-Thunderstorm,245
2013-9-5,108,92,77,71,65,59,76,45,21,29.83,29.77,29.71,10,10,10,12,4,,0.00,0,,273
2013-9-6,109,95,81,67,62,57,56,37,19,29.83,29.75,29.68,10,10,9,14,7,,0.00,0,Rain-Thunderstorm,222
2013-9-7,98,88,78,72,69,64,81,56,35,29.88,29.82,29.78,10,8,0,23,8,31,0.02,2,Rain-Thunderstorm,96
2013-9-8,102,88,75,72,67,60,85,52,25,29.79,29.73,29.64,10,10,8,15,3,,0.00,0,,136
2013-9-9,99,86,73,71,65,56,82,53,24,29.74,29.67,29.58,10,9,2,20,8,24,0.38,3,Rain-Thunderstorm,58
2013-9-10,97,84,73,70,65,56,87,57,28,29.81,29.76,29.72,10,10,10,8,5,,0.00,0,,129
2013-9-11,100,86,72,75,63,50,84,49,18,29.88,29.81,29.75,10,10,10,12,3,,0.00,0,,127
2013-9-12,104,88,75,62,52,45,48,30,15,29.83,29.76,29.68,10,10,6,7,3,,0.00,0,,253
2013-9-13,106,89,72,54,50,43,49,29,12,29.70,29.63,29.54,10,10,10,13,5,,0.00,0,,273
2013-9-14,108,91,75,56,49,42,40,25,12,29.62,29.57,29.52,10,10,10,7,4,,0.00,0,,249
2013-9-15,109,93,77,58,49,37,43,26,9,29.67,29.62,29.58,10,10,10,9,4,,0.00,0,,264
2013-9-16,109,94,80,53,46,38,34,21,9,29.71,29.65,29.58,10,10,10,14,5,,0.00,0,,277
2013-9-17,108,91,75,52,43,35,42,21,8,29.66,29.60,29.52,10,10,10,21,7,29,0.00,0,,281
2013-9-18,102,85,70,48,33,14,32,18,4,29.66,29.60,29.55,10,10,10,10,5,,0.00,0,,286
2013-9-19,102,85,70,50,45,38,44,26,12,29.72,29.66,29.61,10,10,10,6,2,,0.00,0,,257
2013-9-20,102,86,69,59,48,42,47,29,13,29.74,29.68,29.62,10,10,10,10,4,,0.00,0,,244
2013-9-21,99,86,73,67,53,32,71,39,10,29.75,29.67,29.59,10,10,10,24,7,32,0.00,0,,245
2013-9-22,90,78,68,53,41,25,53,30,10,29.75,29.70,29.64,10,10,7,25,14,38,0.00,0,,298
2013-9-23,97,80,63,52,43,34,58,32,11,29.84,29.79,29.75,10,10,10,8,4,,0.00,0,,281
2013-9-24,99,81,64,47,41,33,40,25,10,29.88,29.79,29.70,10,10,10,13,6,,0.00,0,,237
2013-9-25,97,86,75,43,36,22,32,20,11,29.73,29.64,29.56,10,10,10,25,14,33,0.00,0,,243
2013-9-26,84,74,66,47,38,23,49,28,14,29.78,29.66,29.58,10,10,8,25,19,36,0.00,1,Rain,281
2013-9-27,86,72,57,46,34,21,58,31,9,29.96,29.89,29.79,10,10,10,13,7,21,0.00,0,,305
2013-9-28,91,73,55,42,32,25,44,26,9,30.02,29.96,29.92,10,10,10,7,5,,0.00,0,,275
2013-9-29,95,75,57,37,31,23,37,22,8,30.03,29.95,29.87,10,10,10,8,4,,0.00,0,,263
2013-9-30,97,80,63,40,35,29,40,22,9,29.91,29.83,29.74,10,10,10,8,4,,0.00,0,,211